| time (UTC) | temp F | wind direction | speed MPH | gust MPH | rain 1hr in | rain 24hr in | rain mn in | humidity % | barometer mb |
| 20260506050902 | 40 | 319 | 0.0 | 0.0 | 0.00 | 0.00 | 0.00 | 62 | 1012.2 |
| 20260506044901 | 40 | 10 | 1.0 | 3.0 | 0.00 | 0.00 | 0.00 | 60 | 1012.0 |
| 20260506043902 | 40 | 288 | 0.0 | 0.0 | 0.00 | 0.00 | 0.00 | 60 | 1012.0 |
| 20260506042902 | 41 | 306 | 0.0 | 0.0 | 0.00 | 0.00 | 0.00 | 59 | 1012.0 |
| 20260506041902 | 41 | 296 | 0.0 | 1.0 | 0.00 | 0.00 | 0.00 | 59 | 1012.0 |
| 20260506040902 | 41 | 304 | 0.0 | 1.0 | 0.00 | 0.00 | 0.00 | 59 | 1011.9 |
| 20260506035903 | 42 | 290 | 0.0 | 1.0 | 0.00 | 0.00 | 0.00 | 58 | 1011.8 |
| 20260506034933 | 42 | 302 | 0.0 | 1.0 | 0.00 | 0.00 | 0.00 | 58 | 1011.8 |
| 20260506033901 | 42 | 293 | 0.0 | 0.0 | 0.00 | 0.00 | 0.00 | 57 | 1011.8 |
| 20260506032903 | 42 | 274 | 1.0 | 2.0 | 0.00 | 0.00 | 0.00 | 56 | 1011.7 |
| 20260506031901 | 43 | 309 | 0.0 | 1.0 | 0.00 | 0.00 | 0.00 | 56 | 1011.8 |
| 20260506030901 | 43 | 299 | 1.0 | 2.0 | 0.00 | 0.00 | 0.00 | 56 | 1011.7 |
| 20260506025932 | 44 | 304 | 3.0 | 6.0 | 0.00 | 0.00 | 0.00 | 56 | 1011.6 |
| 20260506024902 | 44 | 326 | 2.0 | 4.0 | 0.00 | 0.00 | 0.00 | 54 | 1011.3 |
| 20260506023903 | 44 | 314 | 4.0 | 11.0 | 0.00 | 0.00 | 0.00 | 53 | 1011.2 |
| 20260506022931 | 44 | 337 | 2.0 | 3.0 | 0.00 | 0.00 | 0.00 | 53 | 1011.0 |
| 20260506021902 | 45 | 301 | 1.0 | 3.0 | 0.00 | 0.00 | 0.00 | 53 | 1010.9 |
| 20260506020901 | 45 | 335 | 0.0 | 1.0 | 0.00 | 0.00 | 0.00 | 52 | 1010.6 |
| 20260506015902 | 45 | 306 | 0.0 | 1.0 | 0.00 | 0.00 | 0.00 | 51 | 1010.4 |
| 20260506014902 | 46 | 322 | 1.0 | 3.0 | 0.00 | 0.00 | 0.00 | 50 | 1010.3 |
| 20260506013902 | 46 | 317 | 2.0 | 3.0 | 0.00 | 0.00 | 0.00 | 49 | 1010.2 |
| 20260506012903 | 47 | 279 | 1.0 | 3.0 | 0.00 | 0.00 | 0.00 | 49 | 1010.0 |
| 20260506011902 | 47 | 266 | 1.0 | 3.0 | 0.00 | 0.00 | 0.00 | 49 | 1009.9 |
| 20260506010902 | 47 | 316 | 0.0 | 1.0 | 0.00 | 0.00 | 0.00 | 47 | 1009.8 |
| 20260506005903 | 48 | 280 | 1.0 | 3.0 | 0.00 | 0.00 | 0.00 | 48 | 1009.8 |
| 20260506004901 | 48 | 292 | 2.0 | 3.0 | 0.00 | 0.00 | 0.00 | 47 | 1009.8 |
| 20260506003902 | 48 | 305 | 1.0 | 3.0 | 0.00 | 0.00 | 0.00 | 46 | 1009.6 |
| 20260506002902 | 48 | 289 | 2.0 | 6.0 | 0.00 | 0.00 | 0.00 | 47 | 1009.6 |
| 20260506001902 | 48 | 278 | 2.0 | 3.0 | 0.00 | 0.00 | 0.00 | 46 | 1009.4 |
| 20260506000903 | 48 | 287 | 0.0 | 1.0 | 0.00 | 0.00 | 0.00 | 47 | 1009.4 |
| 20260505235901 | 48 | 306 | 1.0 | 2.0 | 0.00 | 0.00 | 0.00 | 47 | 1009.3 |
| 20260505234903 | 48 | 282 | 1.0 | 2.0 | 0.00 | 0.00 | 0.00 | 47 | 1009.2 |
| 20260505233902 | 48 | 278 | 2.0 | 3.0 | 0.00 | 0.00 | 0.00 | 45 | 1009.1 |
| 20260505232932 | 48 | 289 | 2.0 | 3.0 | 0.00 | 0.00 | 0.00 | 47 | 1009.1 |
| 20260505231902 | 48 | 286 | 1.0 | 2.0 | 0.00 | 0.00 | 0.00 | 46 | 1009.2 |
| 20260505230902 | 49 | 272 | 2.0 | 3.0 | 0.00 | 0.00 | 0.00 | 45 | 1009.2 |
| 20260505225933 | 49 | 291 | 1.0 | 2.0 | 0.00 | 0.00 | 0.00 | 47 | 1009.2 |
| 20260505224932 | 50 | 277 | 0.0 | 2.0 | 0.00 | 0.00 | 0.00 | 45 | 1009.2 |
| 20260505223932 | 49 | 303 | 1.0 | 2.0 | 0.00 | 0.00 | 0.00 | 46 | 1009.1 |
| 20260505222902 | 49 | 285 | 1.0 | 2.0 | 0.00 | 0.00 | 0.00 | 45 | 1009.0 |
| 20260505221902 | 49 | 290 | 2.0 | 3.0 | 0.00 | 0.00 | 0.00 | 47 | 1009.1 |
| 20260505220902 | 49 | 312 | 3.0 | 9.0 | 0.00 | 0.00 | 0.00 | 46 | 1009.0 |
| 20260505215932 | 49 | 291 | 1.0 | 3.0 | 0.00 | 0.00 | 0.00 | 45 | 1009.1 |
| 20260505214902 | 50 | 279 | 2.0 | 2.0 | 0.00 | 0.00 | 0.00 | 45 | 1009.2 |
| 20260505213902 | 50 | 273 | 2.0 | 4.0 | 0.00 | 0.00 | 0.00 | 46 | 1009.2 |
| 20260505212902 | 50 | 283 | 2.0 | 2.0 | 0.00 | 0.00 | 0.00 | 44 | 1009.2 |
| 20260505211902 | 50 | 283 | 4.0 | 7.0 | 0.00 | 0.00 | 0.00 | 44 | 1009.2 |
| 20260505210902 | 49 | 333 | 2.0 | 6.0 | 0.00 | 0.00 | 0.00 | 45 | 1009.2 |
| 20260505205902 | 50 | 284 | 3.0 | 4.0 | 0.00 | 0.00 | 0.00 | 44 | 1009.3 |
| 20260505204902 | 50 | 290 | 3.0 | 4.0 | 0.00 | 0.00 | 0.00 | 44 | 1009.2 |
| 20260505203902 | 49 | 275 | 3.0 | 6.0 | 0.00 | 0.00 | 0.00 | 44 | 1009.3 |
| 20260505202902 | 50 | 282 | 2.0 | 4.0 | 0.00 | 0.00 | 0.00 | 43 | 1009.3 |
| 20260505201902 | 50 | 279 | 3.0 | 4.0 | 0.00 | 0.00 | 0.00 | 43 | 1009.3 |
| 20260505200902 | 50 | 275 | 2.0 | 3.0 | 0.00 | 0.00 | 0.00 | 45 | 1009.3 |
| 20260505195902 | 50 | 280 | 1.0 | 2.0 | 0.00 | 0.00 | 0.00 | 43 | 1009.4 |
| 20260505194902 | 50 | 291 | 3.0 | 4.0 | 0.00 | 0.00 | 0.00 | 45 | 1009.3 |
| 20260505193902 | 50 | 282 | 3.0 | 4.0 | 0.00 | 0.00 | 0.00 | 42 | 1009.2 |
| 20260505191902 | 50 | 277 | 3.0 | 4.0 | 0.00 | 0.00 | 0.00 | 46 | 1009.2 |
| 20260505190902 | 49 | 250 | 2.0 | 3.0 | 0.00 | 0.00 | 0.00 | 47 | 1009.4 |
| 20260505185902 | 49 | 268 | 3.0 | 8.0 | 0.00 | 0.00 | 0.00 | 45 | 1009.4 |
| 20260505184902 | 49 | 259 | 3.0 | 4.0 | 0.00 | 0.00 | 0.00 | 45 | 1009.5 |
| 20260505183902 | 49 | 285 | 2.0 | 3.0 | 0.00 | 0.00 | 0.00 | 44 | 1009.4 |
| 20260505182902 | 49 | 291 | 2.0 | 3.0 | 0.00 | 0.00 | 0.00 | 45 | 1009.4 |
| 20260505181902 | 49 | 274 | 3.0 | 4.0 | 0.00 | 0.00 | 0.00 | 45 | 1009.3 |
| 20260505180902 | 48 | 276 | 2.0 | 3.0 | 0.00 | 0.00 | 0.00 | 44 | 1009.3 |
| 20260505175902 | 49 | 283 | 0.0 | 1.0 | 0.00 | 0.00 | 0.00 | 43 | 1009.4 |
| 20260505174902 | 49 | 260 | 2.0 | 3.0 | 0.00 | 0.00 | 0.00 | 44 | 1009.4 |
| 20260505173932 | 48 | 263 | 4.0 | 6.0 | 0.00 | 0.00 | 0.00 | 49 | 1009.4 |
| 20260505171932 | 48 | 267 | 1.0 | 3.0 | 0.00 | 0.00 | 0.00 | 45 | 1009.5 |
| 20260505170932 | 49 | 268 | 2.0 | 2.0 | 0.00 | 0.00 | 0.00 | 40 | 1009.5 |
| 20260505165902 | 49 | 265 | 2.0 | 3.0 | 0.00 | 0.00 | 0.00 | 44 | 1009.6 |
| 20260505165002 | 47 | 335 | 3.0 | 4.0 | 0.00 | 0.00 | 0.00 | 48 | 1009.5 |
| 20260505163902 | 46 | 292 | 2.0 | 3.0 | 0.00 | 0.00 | 0.00 | 45 | 1009.5 |
| 20260505162902 | 47 | 281 | 2.0 | 4.0 | 0.00 | 0.00 | 0.00 | 47 | 1009.5 |
| 20260505161932 | 47 | 280 | 1.0 | 3.0 | 0.00 | 0.00 | 0.00 | 44 | 1009.5 |
| 20260505160902 | 47 | 268 | 3.0 | 6.0 | 0.00 | 0.00 | 0.00 | 43 | 1009.4 |
| 20260505152901 | 46 | 282 | 2.0 | 5.0 | 0.00 | 0.00 | 0.00 | 49 | 1009.4 |
| 20260505151902 | 45 | 307 | 2.0 | 4.0 | 0.00 | 0.00 | 0.00 | 47 | 1009.4 |
| 20260505150901 | 45 | 281 | 3.0 | 3.0 | 0.00 | 0.00 | 0.00 | 50 | 1009.2 |
| 20260505124903 | 40 | 338 | 0.0 | 0.0 | 0.00 | 0.00 | 0.00 | 59 | 1008.2 |
| 20260505123901 | 39 | 305 | 2.0 | 4.0 | 0.00 | 0.00 | 0.00 | 59 | 1008.0 |
| 20260505122903 | 39 | 281 | 0.0 | 1.0 | 0.00 | 0.00 | 0.00 | 61 | 1007.7 |
| 20260505121901 | 39 | 310 | 1.0 | 3.0 | 0.00 | 0.00 | 0.00 | 61 | 1007.5 |
| 20260505120932 | 39 | 294 | 4.0 | 8.0 | 0.00 | 0.00 | 0.00 | 64 | 1007.4 |
| 20260505115901 | 39 | 296 | 1.0 | 3.0 | 0.00 | 0.00 | 0.00 | 64 | 1007.2 |
| 20260505114902 | 38 | 277 | 0.0 | 0.0 | 0.00 | 0.00 | 0.00 | 65 | 1006.8 |
| 20260505113903 | 38 | 307 | 1.0 | 2.0 | 0.00 | 0.00 | 0.00 | 66 | 1006.6 |
| 20260505112902 | 38 | 285 | 0.0 | 1.0 | 0.00 | 0.00 | 0.00 | 65 | 1006.6 |
| 20260505111902 | 38 | 328 | 0.0 | 0.0 | 0.00 | 0.00 | 0.00 | 65 | 1006.6 |
| 20260505110902 | 39 | 303 | 1.0 | 3.0 | 0.00 | 0.00 | 0.00 | 65 | 1006.5 |
| 20260505101932 | 40 | 311 | 2.0 | 6.0 | 0.00 | 0.00 | 0.00 | 65 | 1006.1 |
| 20260505100902 | 40 | 351 | 2.0 | 5.0 | 0.00 | 0.00 | 0.00 | 65 | 1006.2 |
| 20260505095902 | 40 | 330 | 2.0 | 4.0 | 0.00 | 0.00 | 0.00 | 65 | 1006.1 |
| 20260505094902 | 40 | 271 | 1.0 | 2.0 | 0.00 | 0.00 | 0.00 | 65 | 1006.0 |
| 20260505093902 | 40 | 272 | 1.0 | 3.0 | 0.00 | 0.00 | 0.00 | 65 | 1005.9 |
| 20260505092902 | 41 | 276 | 2.0 | 3.0 | 0.00 | 0.00 | 0.00 | 64 | 1005.8 |
| 20260505091902 | 41 | 306 | 1.0 | 2.0 | 0.00 | 0.00 | 0.00 | 64 | 1005.7 |
| 20260505090902 | 41 | 291 | 0.0 | 0.0 | 0.00 | 0.00 | 0.00 | 63 | 1005.6 |
| 20260505085902 | 41 | 319 | 2.0 | 3.0 | 0.00 | 0.00 | 0.00 | 62 | 1005.5 |
| 20260505084902 | 42 | 302 | 2.0 | 4.0 | 0.00 | 0.00 | 0.00 | 61 | 1005.2 |
| 20260505083902 | 42 | 296 | 2.0 | 4.0 | 0.00 | 0.00 | 0.00 | 60 | 1005.2 |
| 20260505082902 | 42 | 282 | 0.0 | 2.0 | 0.00 | 0.00 | 0.00 | 60 | 1005.1 |
| 20260505081902 | 42 | 292 | 2.0 | 3.0 | 0.00 | 0.00 | 0.00 | 58 | 1004.9 |
| 20260505080932 | 42 | 282 | 2.0 | 3.0 | 0.00 | 0.00 | 0.00 | 58 | 1004.6 |
| 20260505075902 | 43 | 292 | 2.0 | 4.0 | 0.00 | 0.00 | 0.00 | 58 | 1004.4 |
| 20260505074902 | 43 | 282 | 3.0 | 8.0 | 0.00 | 0.00 | 0.00 | 57 | 1004.5 |
| 20260505073932 | 43 | 292 | 2.0 | 4.0 | 0.00 | 0.00 | 0.00 | 57 | 1004.4 |
| 20260505072902 | 43 | 304 | 4.0 | 11.0 | 0.00 | 0.00 | 0.00 | 57 | 1004.5 |
| 20260505071902 | 43 | 304 | 1.0 | 2.0 | 0.00 | 0.00 | 0.00 | 57 | 1004.4 |
| 20260505070902 | 44 | 289 | 1.0 | 2.0 | 0.00 | 0.00 | 0.00 | 56 | 1004.6 |
| 20260505065902 | 44 | 288 | 2.0 | 4.0 | 0.00 | 0.00 | 0.00 | 56 | 1004.5 |
| 20260505064902 | 44 | 274 | 2.0 | 3.0 | 0.00 | 0.00 | 0.00 | 55 | 1004.5 |
| 20260505062933 | 44 | 279 | 0.0 | 0.0 | 0.00 | 0.00 | 0.00 | 57 | 1004.6 |
| 20260505061902 | 45 | 270 | 1.0 | 2.0 | 0.00 | 0.00 | 0.00 | 55 | 1004.6 |
| 20260505060901 | 45 | 293 | 2.0 | 3.0 | 0.00 | 0.00 | 0.00 | 55 | 1004.7 |
| 20260505055902 | 45 | 282 | 2.0 | 4.0 | 0.00 | 0.00 | 0.00 | 56 | 1004.6 |
| 20260505054902 | 45 | 273 | 2.0 | 3.0 | 0.00 | 0.00 | 0.00 | 54 | 1004.6 |